Weather in Yasnaya Polyana

Russia / Penza Oblast     53°02′31″N   46°39′13″E
temp.,
°C
wind,
m/s
gust,
m/s
humid.,
%
clouds,
%
prec.,
mm/h
press.,
hPa
HPBL,
m
22 october, fri
fri2200:00+9wsw61780100 0.1 1006643
03:00+8sw61680100 0.1 1006594
06:00+8sw61678100 0.0 1005612
09:00+9sw71766100 0.0 1005783
12:00+11sw71562100 0.0 1005807
15:00+12wsw81465100 0.0 10051056
18:00+11wsw6157499 0.0 1007830
21:00+10wsw614795 0.0 1009853
23 october, sat
sat2300:00+9wsw513855 0.0 1010557
03:00+7sw4129183 0.0 1011400
06:00+6wsw412870 0.0 1011408
09:00+9sw512660 0.0 1012720
12:00+13wsw617475 0.0 10121990
15:00+13sw61347100 0.0 10121541
18:00+9s3868100 0.0 1012239
21:00+11sw61277100 0.8 10101434
24 october, sun
sun2400:00+10w5981100 3.3 1010925
03:00+6w410790 3.3 1011539
06:00+4w4107967 0.0 1012469
09:00+5w59765 0.0 1014677
12:00+7w585828 0.0 10141070
15:00+7w585710 0.0 10141321
18:00+6wsw3864100 0.0 1014632
21:00+4sw2669100 0.0 1014201
25 october, mon
mon2500:00+3wnw1278100 0.0 101432
03:00+3nw1386100 0.0 1014125
06:00+2nnw2598100 0.1 1015318
09:00+2nnw468699 0.4 1017670
12:00+3nnw5766100 0.1 10181235
15:00+2nnw598783 0.3 1019775
18:00+1n6118364 0.3 1023844
21:00−1nnw511745 0.3 1025852
26 october, tue
tue2600:00−2nnw4117974 0.0 1027606
03:00−3nnw310845 0.0 1028418
06:00−3nw3983100 0.0 1029315
09:000wnw376297 0.0 1029379
12:00+4w57415 0.0 1028805
15:00+4w59415 0.0 1026888
18:00+1w41253100 0.0 1026460
21:000w4135876 0.0 1026408